Simultaneous Nadir Overpasses (SNOs) Predictions

Prediction of SNOs between TERRA and METOP-C Satellite Orbit:

Table of predicted SNOs for the next 14.0 days since TLE Epoch: 1/6/2024
Index Date (TERRA) Time (TERRA) Lat,Lon (TERRA) SZA (TERRA ) Date (METOP-C) Time (METOP-C) Lat,Lon (METOP-C) SZA (METOP-C ) Distance(km) Time Diff (sec)
1 01/06/2024 12:39:28 -80.00,-167.71 76.93 01/06/2024 12:39:19 -80.00,-167.72 76.93 0.18 9
2 01/06/2024 13:28:45 80.13, 1.04 103.26 01/06/2024 13:29:55 80.13, 0.96 103.27 1.81 70
3 01/09/2024 03:11:27 -78.60, -34.45 79.06 01/09/2024 03:10:13 -78.76, -35.16 78.94 23.18 74
4 01/09/2024 04:00:13 80.01, 142.14 102.73 01/09/2024 04:00:17 80.01, 142.14 102.73 0.28 4
5 01/11/2024 18:31:41 79.86, -76.87 102.13 01/11/2024 18:30:40 79.85, -76.98 102.10 2.36 61
6 01/11/2024 19:20:58 -80.03, 92.13 77.64 01/11/2024 19:21:14 -80.04, 92.21 77.63 1.49 16
7 01/14/2024 09:52:26 -79.88,-126.96 78.31 01/14/2024 09:51:37 -79.88,-126.94 78.31 0.50 49
8 01/14/2024 10:41:43 80.04, 41.93 101.91 01/14/2024 10:42:13 80.03, 41.93 101.92 0.15 30
9 01/17/2024 01:13:10 79.89,-177.06 101.22 01/17/2024 01:12:35 79.90,-177.00 101.22 1.38 35
10 01/17/2024 02:02:28 -80.04, -8.26 78.59 01/17/2024 02:03:11 -80.03, -8.34 78.59 1.96 43
11 01/19/2024 16:33:54 -79.89, 132.68 79.34 01/19/2024 16:33:32 -79.89, 132.72 79.33 1.11 22



Historial Predications of SNOs between TERRA and METOP-C
